Tracking 25709 objects as of 24-May-2022
HD Live streaming from Space Station
objects crossing your sky now

LACUNASAT-2B

Track LACUNASAT-2B now!
10-day predictions


NORAD ID: 47948
Int'l Code: 2021-022S
Perigee: 532.9 km
Apogee: 557.8 km
Inclination: 97.5 °
Period: 95.4 minutes
Semi major axis: 6916 km
RCS: Unknown
Launch date: March 22, 2021
Source: United Kingdom (UK)
Launch site: TYURATAM MISSILE AND SPACE COMPLEX (TTMTR)
aabbcc
Your satellite tracking list
Your tracking list is empty




NASA's NSSDC Master Catalog

Two Line Element Set (TLE):
1 47948U 21022S   22144.46672172  .00010780  00000-0  67660-3 0  9991
2 47948  97.5381  45.3051 0017958 219.1512 140.8419 15.09336411 64297
Source of the keplerian elements: AFSPC